This is the latest recevied weather packets stored in our database for station/object K5SVV. If no packets are shown the sender has not sent any weather packets the latest 10 day(s).
| Time | Temp. | Humidity | Pressure | Rain* | Wind** | Luminosity | Snow |
|---|---|---|---|---|---|---|---|
| 1777988874 | 22.78° C | 87% | 1004.7 hPa | 0 mm | - | 218 W/m² | - |
| 1777988572 | 22.22° C | 88% | 1004.9 hPa | 0 mm | - | 220 W/m² | - |
| 1777988268 | 22.22° C | 88% | 1004.8 hPa | 0 mm | - | 218 W/m² | - |
| 1777987965 | 22.22° C | 89% | 1004.6 hPa | 0 mm | - | 253 W/m² | - |
| 1777987661 | 22.22° C | 89% | 1004.5 hPa | 0 mm | - | 224 W/m² | - |
| 1777987358 | 21.67° C | 89% | 1004.4 hPa | 0 mm | - | 195 W/m² | - |
| 1777987056 | 21.67° C | 90% | 1004.6 hPa | 0 mm | - | 172 W/m² | - |
| 1777986753 | 21.67° C | 90% | 1004.8 hPa | 0 mm | - | 157 W/m² | - |
| 1777986450 | 21.67° C | 90% | 1004.6 hPa | 0 mm | - | 146 W/m² | - |
| 1777986149 | 21.11° C | 91% | 1004.6 hPa | 0 mm | - | 116 W/m² | - |
| 1777985845 | 21.11° C | 91% | 1004.3 hPa | 0 mm | - | 116 W/m² | - |
| 1777985543 | 21.11° C | 92% | 1004.4 hPa | 0 mm | - | 118 W/m² | - |
| 1777985239 | 21.11° C | 92% | 1004.2 hPa | 0 mm | - | 105 W/m² | - |
| 1777984936 | 21.11° C | 92% | 1004.1 hPa | 0 mm | - | 78 W/m² | - |
| 1777984631 | 20.56° C | 92% | 1004.3 hPa | 0 mm | - | 59 W/m² | - |
| 1777984328 | 20.56° C | 92% | 1004.4 hPa | 0 mm | - | 50 W/m² | - |
| 1777984024 | 20.56° C | 92% | 1004.2 hPa | 0 mm | - | 43 W/m² | - |
| 1777983721 | 20.56° C | 92% | 1004 hPa | 0 mm | - | 39 W/m² | - |
| 1777983413 | 20.56° C | 92% | 1004.1 hPa | 0 mm | - | 31 W/m² | - |
| 1777983109 | 20.56° C | 93% | 1003.9 hPa | 0 mm | - | 28 W/m² | - |
| 1777982806 | 20.56° C | 92% | 1003.9 hPa | 0 mm | - | 22 W/m² | - |
| 1777982501 | 20.56° C | 93% | 1003.8 hPa | 0 mm | - | 17 W/m² | - |
| 1777982196 | 20.56° C | 92% | 1003.9 hPa | 0 mm | - | 13 W/m² | - |
| 1777981893 | 20.56° C | 92% | 1004 hPa | 0 mm | - | 8 W/m² | - |
| 1777981585 | 20.56° C | 92% | 1003.9 hPa | 0 mm | - | 4 W/m² | - |
* Rain latest hour (hover to see other rain measurements)
** Current wind speed in m/s (hover to see current wind gust speed)